Skip Page Navigation
NASA JPL Caltech
NASA Logo - Jet Propulsion Laboratory + View the NASA Portal
+ Near-Earth Object (NEO) Program
Search JPL
JPL Home Earth Solar System Stars & Galaxies Technology
JPL Solar System Dynamics
BODIES ORBITS EPHEMERIDES TOOLS PHYSICAL DATA DISCOVERY FAQ SITE MAP
JPL Small-Body Database Browser
Search: [ help ]  
44856 (1999 UH6)
Classification: Main-belt Asteroid          SPK-ID: 2044856
Ephemeris | Orbit Diagram | Orbital Elements | Physical Parameters | Discovery Circumstances ]

[ show orbit diagram ]
Orbital Elements at Epoch 2456800.5 (2014-May-23.0) TDB
Reference: JPL 3 (heliocentric ecliptic J2000)
 Element Value Uncertainty (1-sigma)   Units 
e .1997922158876075 6.5043e-08  
a 2.378524461449403 2.008e-08 AU
q 1.903313788753548 1.5385e-07 AU
i 2.453051021522256 6.9007e-06 deg
node 217.4536400409282 0.00015816 deg
peri 135.9657912582617 0.00015935 deg
M 18.91239166741146 1.8592e-05 deg
tp 2456730.111159255159
(2014-Mar-13.61115926)
6.8762e-05 JED
period 1339.861351951944
3.67
1.6967e-05
4.645e-08
d
yr
n .2686845168535854 3.4025e-09 deg/d
Q 2.853735134145258 2.4092e-08 AU
  Orbit Determination Parameters
   # obs. used (total)      428  
   data-arc span      6609 days (18.09 yr)  
   first obs. used      1995-06-04  
   last obs. used      2013-07-08  
   planetary ephem.      DE431  
   SB-pert. ephem.      SB431-BIG16  
   condition code      0  
   fit RMS      .54607  
   data source      ORB  
   producer      Otto Matic  
   solution date      2013-Aug-06 03:03:42  

Additional Information
 Earth MOID = .897839 AU 
 T_jup = 3.511 
[ show covariance matrix ]

Ephemeris | Orbit Diagram | Orbital Elements | Physical Parameters | Discovery Circumstances ]

Physical Parameter Table
Parameter Symbol Value Units Sigma Reference Notes
absolute magnitude H 15.8 mag n/a MPO266166  

44856 (1999 UH6)          Discovered 1999-Oct-28 by BAO Schmidt CCD Asteroid Program at Xinglong (327)
Reference: 20020822/Numbers.arcLast Updated: 2004-04-19

Alternate Designations
 1999 UH6 = 1997 EL59 
Ephemeris | Orbit Diagram | Orbital Elements | Physical Parameters | Discovery Circumstances ]
ABOUT SSD CREDITS/AWARDS PRIVACY/COPYRIGHT GLOSSARY LINKS
FirstGov 2014-Apr-25 06:38 UT
(server date/time)  
NASA Home Page
Site Manager:   Donald K. Yeomans
Webmaster  Alan B. Chamberlin